FW5642 Weather Reports


Display with metric or nautical units.
time (UTC)temp
F
wind
direction
speed
MPH
gust
MPH
rain 1hr
in
rain 24hr
in
rain mn
in
humidity
%
barometer
mb
20260904231536 67 61 0.0 2.0 0.00 0.05 0.00 58 1015.3
20260904230149 68 71 0.0 2.0 0.00 0.05 0.00 56 1015.1
20260904224536 68 189 0.0 3.0 0.00 0.05 0.00 57 1015.1
20260904223107 69 271 0.0 3.0 0.00 0.05 0.00 56 1015.0
20260904214535 68 302 0.0 4.0 0.00 0.05 0.00 58 1015.1
20260904213105 66 260 1.0 5.0 0.00 0.05 0.00 59 1015.1
20260904211605 67 251 1.0 4.0 0.00 0.05 0.00 59 1015.1
20260904204534 66 304 1.0 4.0 0.00 0.05 0.00 59 1015.1
20260904203106 66 288 0.0 3.0 0.00 0.05 0.00 59 1015.2
20260904200142 66 335 2.0 6.0 0.00 0.05 0.00 59 1015.5
20260904194536 65 337 0.0 5.0 0.00 0.05 0.00 61 1015.6
20260904193033 66 323 2.0 5.0 0.00 0.05 0.00 60 1015.8
20260904191536 67 319 2.0 6.0 0.00 0.05 0.00 61 1015.8
20260904190105 65 351 1.0 6.0 0.00 0.05 0.00 67 1015.9
20260904184611 64 350 1.0 5.0 0.00 0.05 0.00 68 1015.9
20260904181644 65 17 0.0 4.0 0.00 0.05 0.00 69 1015.9
20260904180034 63 329 0.0 3.0 0.00 0.05 0.00 73 1015.9
20260904174534 61 5 0.0 2.0 0.00 0.05 0.00 77 1016.0
20260904171532 60 328 0.0 3.0 0.00 0.05 0.00 82 1015.9
20260904170035 59 254 0.0 4.0 0.00 0.05 0.00 85 1015.9
20260904164530 57 14 0.0 4.0 0.00 0.05 0.00 86 1015.9
20260904163037 56 39 0.0 0.0 0.00 0.05 0.00 90 1015.9
20260904160033 56 56 0.0 0.0 0.00 0.05 0.00 92 1015.9
20260904154533 55 86 0.0 0.0 0.00 0.05 0.00 94 1016.0
20260904153034 54 112 0.0 0.0 0.00 0.05 0.00 95 1015.9
20260904144530 52 112 0.0 0.0 0.00 0.05 0.00 95 1015.7
20260904141535 51 112 0.0 0.0 0.00 0.05 0.00 95 1015.4
20260904140033 51 113 0.0 0.0 0.00 0.05 0.00 94 1015.1
20260904134536 51 108 0.0 0.0 0.00 0.05 0.00 94 1015.0
20260904133037 51 112 0.0 0.0 0.00 0.05 0.00 94 1014.8
20260904131641 51 135 0.0 0.0 0.00 0.05 0.00 94 1014.6
20260904130034 51 135 0.0 0.0 0.00 0.05 0.00 94 1014.5
20260904124535 51 115 0.0 0.0 0.00 0.05 0.00 93 1014.6
20260904121606 51 112 0.0 0.0 0.00 0.05 0.00 93 1014.5
20260904120033 51 112 0.0 0.0 0.00 0.05 0.00 93 1014.4
20260904111605 51 112 0.0 0.0 0.00 0.05 0.00 93 1014.0
20260904110035 51 112 0.0 0.0 0.00 0.05 0.00 92 1013.9
20260904104536 51 112 0.0 0.0 0.00 0.05 0.00 92 1013.7
20260904103032 51 112 0.0 0.0 0.00 0.05 0.00 92 1013.7
20260904100035 51 112 0.0 0.0 0.00 0.05 0.00 91 1013.5
20260904093034 51 103 0.0 0.0 0.00 0.05 0.00 91 1013.3
20260904084533 51 61 0.0 0.0 0.00 0.05 0.00 91 1013.2
20260904080037 50 226 0.0 0.0 0.00 0.05 0.00 90 1013.0
20260904074605 50 258 0.0 2.0 0.00 0.05 0.00 89 1013.0
20260904073030 50 225 0.0 0.0 0.00 0.05 0.00 88 1013.0
20260904071531 50 140 0.0 0.0 0.00 0.05 0.00 87 1012.9
20260904070034 51 177 0.0 0.0 0.00 0.05 0.00 86 1012.8
20260904064606 52 204 0.0 0.0 0.00 0.05 0.05 85 1012.8
20260904063036 53 234 0.0 5.0 0.00 0.05 0.05 85 1012.7
20260904061536 53 243 0.0 4.0 0.00 0.05 0.05 85 1012.6
20260904060036 53 235 1.0 6.0 0.00 0.05 0.05 85 1012.5
20260904054537 53 226 0.0 4.0 0.00 0.05 0.05 86 1012.5
20260904051531 53 253 1.0 6.0 0.00 0.05 0.05 87 1012.6
20260904044534 53 241 1.0 6.0 0.00 0.05 0.05 89 1012.7
20260904043036 53 244 0.0 5.0 0.00 0.05 0.05 89 1012.7
20260904041535 52 205 0.0 3.0 0.00 0.06 0.05 89 1012.7
20260904040035 52 221 0.0 7.0 0.00 0.06 0.05 90 1012.7
20260904034643 53 228 0.0 4.0 0.00 0.06 0.05 90 1012.6
20260904033034 54 239 0.0 5.0 0.00 0.06 0.05 90 1012.5
20260904031529 54 244 1.0 6.0 0.00 0.06 0.05 89 1012.2
20260904030031 54 229 0.0 7.0 0.03 0.07 0.05 89 1012.2
20260904024535 54 248 1.0 5.0 0.03 0.10 0.05 89 1012.1
20260904023030 55 223 1.0 8.0 0.03 0.21 0.05 88 1012.1
20260904020035 55 226 2.0 9.0 0.00 0.18 0.02 87 1012.0
20260904014534 55 233 0.0 5.0 0.01 0.18 0.02 87 1011.8
20260904013036 55 264 1.0 5.0 0.01 0.18 0.02 87 1011.7
20260904011535 55 334 0.0 5.0 0.01 0.18 0.02 86 1011.7
20260904010035 55 248 0.0 6.0 0.01 0.18 0.01 85 1011.7
20260904003036 55 251 3.0 10.0 0.01 0.17 0.01 81 1011.8
20260904001533 59 258 6.0 14.0 0.01 0.17 0.00 71 1011.6
20260903234535 61 246 6.0 14.0 0.00 0.16 0.00 66 1011.6
20260903233032 62 268 4.0 13.0 0.00 0.16 0.00 64 1011.4